Regional Weather Roundup
Issued by NWS

Home | Current Version | Previous Version | Graphics & Text | Print | Product List | Glossary On
Versions: 1 2 3 4 5 6 7 8 9 10 11 12 13 14 15 16 17 18 19 20 21 22 23 24 25 26 27 28 29 30 31 32 33 34 35 36 37 38 39 40 41 42 43 44 45 46 47 48 49 50
000
ASUS43 KBIS 141802
RWRND

NORTH DAKOTA REGIONAL WEATHER ROUNDUP
NATIONAL WEATHER SERVICE BISMARCK ND
1200 PM CST THU DEC 14 2017

NOTE: "FAIR" INDICATES FEW OR NO CLOUDS BELOW 12,000 FEET WITH NO
SIGNIFICANT WEATHER AND/OR OBSTRUCTIONS TO VISIBILITY.


NDZ001>003-009>011-017-141900-
NORTHWEST NORTH DAKOTA

CITY           SKY/WX    TMP DP  RH WIND       PRES   REMARKS
WILLISTON      CLOUDY    34  25  69 NW18      30.20S
6HR MIN TEMP:  31; 6HR MAX TEMP:  34;

MINOT          CLOUDY    33  24  69 NW18      30.12S
MINOT AFB      MIX PCPN  32  24  72 NW16      30.10F
$$

NDZ018>021-031>035-040>046-141900-
SOUTHWEST NORTH DAKOTA

CITY           SKY/WX    TMP DP  RH WIND       PRES   REMARKS
BISMARCK       PTSUNNY   34  25  69 N17G28    30.14R
6HR MIN TEMP:  32; 6HR MAX TEMP:  35; 6HR PCP: TRACE;

DICKINSON      CLOUDY    32  25  75 NW21G28   30.16R WCI  20
GARRISON         N/A     33  22  63 NW22      30.13S
6HR MIN TEMP:  29; 6HR MAX TEMP:  33;

HETTINGER ARPT CLOUDY    33  23  66 NW21G29   30.19R
$$

NDZ004>008-012>016-024-026-027-054-141900-
NORTHEAST NORTH DAKOTA

CITY           SKY/WX    TMP DP  RH WIND       PRES   REMARKS
GRAND FORKS    CLOUDY    21  17  84 N14       30.08S WCI   8
GRND FRKS AFB  CLOUDY    21  17  81 N10       30.08S WCI  10
DEVILS LAKE    FLURRIES  25  21  85 N10       30.07F WCI  15
$$

NDZ022-023-025-028>030-036>039-047>053-141900-
SOUTHEAST NORTH DAKOTA

CITY           SKY/WX    TMP DP  RH WIND       PRES   REMARKS
FARGO          CLOUDY    25  20  81 N13       30.07F WCI  14
6HR MIN TEMP:  20; 6HR MAX TEMP:  25; 6HR PCP: TRACE;

JAMESTOWN      CLOUDY    26  23  88 N10       30.08R WCI  16
$$





USA.gov is the U.S. government's official web portal to all federal, state and local government web resources and services.